Weather Roundup
Issued by NWS

Home | Current Version | Previous Version | Graphics & Text | Print | Product List | Glossary On
Versions: 1 2 3 4 5 6 7 8 9 10 11 12 13 14 15 16 17 18 19 20 21 22 23 24 25 26 27 28 29 30 31 32 33 34 35 36 37 38 39 40 41 42 43 44 45 46 47 48 49 50
000
NZUS93 KARX 170510
HRRWXR

CURRENT HOURLY OBSERVATIONS ACROSS
MUCH OF THE UPPER MISSISSIPPI VALLEY
NATIONAL WEATHER SERVICE LA CROSSE WI
1200 AM CDT WED SEP 17 2014


...SOUTHEAST MINNESOTA...


CITY           SKY/WX    TMP DP  RH WIND       PRES   REMARKS
ROCHESTER      CLEAR     47  43  86 S5        30.04F
ROCHESTER/MAYO FAIR      51  43  74 SE3       30.04S
WINONA         CLEAR     48  46  93 CALM      30.05S
AUSTIN         CLEAR     46  43  87 S3        30.03S
ALBERT LEA     CLEAR     54  46  76 S3        30.03S
DODGE CENTER   MOCLDY    50  46  87 S6        30.03S
PRESTON        CLEAR     49  46  92 S5        30.04F
OWATONNA       CLOUDY    55  46  71 S6        30.02S
FARIBAULT      CLOUDY    57  45  62 S5        30.02S
$$

...ELSEWHERE IN MINNESOTA...


CITY           SKY/WX    TMP DP  RH WIND       PRES   REMARKS
MINNEAPOLIS    MOCLDY    57  45  64 SE5       30.00F
INTNL FALLS    CLOUDY    52  48  86 S3        29.88F
DULUTH         PTCLDY    54  42  64 SW12      29.97F
RED WING       CLEAR     46  45  93 CALM      30.02S
REDWOOD FALLS  CLOUDY    61  50  67 S8        29.97F
MANKATO        CLOUDY    57  45  62 S6        30.01S
WORTHINGTON    CLOUDY    57  46  67 S9        30.00S
FAIRMONT       MOCLDY    55  45  67 S8        30.00F
$$

...SOUTHWEST WISCONSIN...


CITY           SKY/WX    TMP DP  RH WIND       PRES   REMARKS
LA CROSSE      CLEAR     50  47  89 SE6       30.05S
PRAIRIE DU CHI CLEAR     46  45  94 SE3       30.06F
BOSCOBEL       FOG       45  43  93 CALM      30.08S VSB 1/4
LONE ROCK      PTCLDY    45  41  86 E3        30.07F FOG
PLATTEVILLE    CLEAR     49  44  81 CALM      30.08F
FORT MC COY    CLEAR     40  39  99 CALM      30.06F
CAMP DOUGLAS   FOG       36  36 100 CALM      30.05F VSB 1
VIROQUA        FAIR      50  44  80 S6        30.05F
WIS DELLS      CLEAR     44  42  93 S3        30.06F
$$

...ELSEWHERE IN WISCONSIN...


CITY           SKY/WX    TMP DP  RH WIND       PRES   REMARKS
MILWAUKEE      CLEAR     51  44  77 SW5       30.08F
MADISON        CLEAR     45  43  93 CALM      30.07F
GREEN BAY      CLEAR     46  45  96 CALM      30.04F
EAU CLAIRE     CLEAR     45  43  93 CALM      30.02F
BLACK RVR FLS  FAIR      37  37 100 CALM      30.04F
MEDFORD        CLEAR     43  40  92 CALM      30.04S
WAUSAU         CLEAR     47  44  90 CALM      30.03F
WIS RAPIDS     CLEAR     44  42  93 CALM      30.06F
MARSHFIELD     CLEAR     46  43  89 SW3       30.04F
RICE LAKE        N/A     43  42  97 CALM      30.04S
$$

...NORTHEAST IOWA...


CITY           SKY/WX    TMP DP  RH WIND       PRES   REMARKS
WATERLOO       CLEAR     46  44  93 CALM      30.05F
DUBUQUE        CLEAR     46  43  89 CALM      30.08F
DECORAH        CLEAR     48  45  87 S5        30.04F
MASON CITY     MOCLDY    47  45  93 S7        30.05S
CHARLES CITY   CLEAR     50  45  81 S5        30.05F
OELWEIN        CLEAR     46  43  87 S6        30.07S
$$

...ELSEWHERE IN IOWA...


CITY           SKY/WX    TMP DP  RH WIND       PRES   REMARKS
DES MOINES     PTCLDY    56  49  77 SE7       30.05F
IOWA CITY      CLEAR     49  47  93 CALM      30.09S
FORT DODGE     CLOUDY    54  48  82 S3        30.04F
MARSHALLTOWN   MOCLDY    50  46  86 SE5       30.06S
CEDAR RAPIDS   CLEAR     47  45  93 SE3       30.07F
$$

...NORTHERN ILLINOIS...


CITY           SKY/WX    TMP DP  RH WIND       PRES   REMARKS
CHICAGO-OHARE  CLEAR     55  47  74 CALM      30.09S
DUPAGE         CLEAR     47  43  86 CALM      30.09S
CHICAGO-MIDWAY CLEAR     57  49  74 SE5       30.09S
MOLINE         CLEAR     47  45  93 CALM      30.09S
ROCKFORD       CLEAR     46  43  89 CALM      30.11S
STERLING       CLEAR     45  39  81 SE3       30.09F
PEORIA         CLEAR     51  47  86 CALM      30.09F
$$

NOTE: "FAIR" INDICATES FEW OR NO CLOUDS BELOW 12,000 FEET WITH NO
SIGNIFICANT WEATHER AND/OR OBSTRUCTIONS TO VISIBILITY. WIND
SPEEDS ARE IN MILES-PER-HOUR.



USA.gov is the U.S. government's official web portal to all federal, state and local government web resources and services.